sat.trackr.live / text

‹ back to catalog

STARLINK-35258

NORAD 65861 · 2025-223H

PAYLOAD ACTIVE UNKNOWN

§ Identity

Operator
Country
US
Launch date
2025-10-03
Launch site
AFWTR
Launch vehicle
Mass (kg)
RCS (m²)

Purposes: comms

External: N2YO · Heavens-Above · Gunter

§ Orbital elements

Epoch: 2026-09-20T06:54:28.829088Z

Period
93.85 min
Inclination
53.1567°
Eccentricity
0.0000845
Mean motion
15.34384536 rev/d
Perigee alt
462.2 km
Apogee alt
463.3 km
Semi-major
6,840.9 km
B*
4.8341e-4
RAAN
106.4473°
Arg perigee
112.0624°
Mean anomaly
248.0469°
Rev number
5,405

§ Raw data

STARLINK-352581 65861U 25223H   26263.28783367  .00015983  00000+0  48341-3 0  99912 65861  53.1567 106.4473 0000845 112.0624 248.0469 15.34384536 54052

JSON: /api/v1/satellites/65861 · /tle

For live sub-satellite position, see the globe view (requires WebGL).

§ Visibility from observer

Set your observer location to see the next 7 days of passes ≥ 10°. The values pass through the URL so the page stays shareable.

No JS? Fill the form by hand. The geolocation button needs JavaScript.